Regional Weather Roundup
Issued by NWS

Home | Current Version | Previous Version | Text Only | Print | Product List | Glossary Off
Versions: 1 2 3 4 5 6 7 8 9 10 11 12 13 14 15 16 17 18 19 20 21 22 23 24 25 26 27 28 29 30 31 32 33 34 35 36 37 38 39 40 41 42 43 44 45 46 47 48 49 50

000
ASUS45 KCYS 040810
RWRWY

WYOMING REGIONAL WEATHER ROUNDUP
NATIONAL WEATHER SERVICE CHEYENNE WY
200 AM MDT SAT JUL 04 2015

NOTE:  "FAIR" INDICATES FEW OR NO CLOUDS BELOW 12,000 FEET
WITH NO SIGNIFICANT WEATHER AND/OR OBSTRUCTIONS TO VISIBILITY.

WYZ001-040900-
YELLOWSTONE NATIONAL PARK

CITY           SKY/WX    TMP DP  RH WIND       PRES   REMARKS
LK YELLOWSTONE   N/A     48  40  73 CALM      30.21S
W YELLOWSTONE  NOT AVBL

$$
WYZ002>013-054>058-071-098>099-040900-
NORTHERN WYOMING

CITY           SKY/WX    TMP DP  RH WIND       PRES   REMARKS
JACKSON        FAIR      55  46  71 N6        30.09S
CODY           FAIR      70  50  49 SW7       29.97F
GREYBULL       FAIR      71  51  49 SE3       29.88S
WORLAND        FAIR      68  56  65 S9        29.90F
SHERIDAN       FAIR      61  55  81 CALM      29.88F
BUFFALO        FAIR      66  54  65 SW3       29.96F
GILLETTE       FAIR      65  56  72 S9        29.93F
HULETT         PTSUNNY   72  55  56 S3        29.95F
NEWCASTLE      FAIR      68  52  56 E12       29.99S

$$
WYZ014>020-022>026-101>103-040900-
CENTRAL WYOMING

CITY           SKY/WX    TMP DP  RH WIND       PRES   REMARKS
BIG PINEY      FAIR      60  42  51 N3        30.15F
PINEDALE       PTSUNNY   59  50  72 W3        30.16F
DUBOIS         FAIR      59  37  44 NW9       30.15S
LANDER         FAIR      67  45  45 S3        30.01F
RIVERTON       FAIR      66  50  56 NW10      30.00F
CASPER         FAIR      58  52  80 NE5       30.00F
DOUGLAS        FAIR      67  51  56 SE7       29.99F

$$
WYZ021-027>030-104>119-040900-
SOUTHERN WYOMING

CITY           SKY/WX    TMP DP  RH WIND       PRES   REMARKS
EVANSTON       FAIR      66  42  41 SE7       30.18F
KEMMERER       FAIR     N/A N/A N/A CALM      30.19F
FORT BRIDGER   MOSUNNY   73  41  31 W9        30.19F
ROCK SPRINGS   FAIR      68  39  34 SW8       30.13S
DIXON          FAIR      60  42  51 E8        30.14S
RAWLINS        FAIR      63  48  58 NE12      30.11S
SARATOGA       FAIR      63  48  59 S7        30.13S
LARAMIE        FAIR      60  52  74 S14       30.14F
CHEYENNE       FAIR      64  54  69 W3        30.09F
TORRINGTON     LGT RAIN  70  57  63 SE16      29.97F
PINE BLUFFS    FAIR      63  55  77 S8        30.04F

$$



USA.gov is the U.S. government's official web portal to all federal, state and local government web resources and services.